Weather observations for the past three days for
King Airport, St. Thomas
Metric (Imperial)
Date Time (ast) Wind (kph) Vis. (km) Weather Sky Cond. Temperature (ºC) Relative Humidity Wind Chill (°C) Heat Index (°C) Pressure Precipitation (cm)
Air Dwpt 6 hour altimeter (cm) sea level (mb) 1 hr 3 hr 6 hr
Max. Min.
03 16:53 SE 20 16.09 A Few Clouds FEW030 29.4 22.2 65% 33 76.12 1014.8
03 15:53 SE 19 16.09 A Few Clouds FEW030 30 23 66% 34 76.15 0.0
03 14:53 SE 19 16.09 A Few Clouds FEW030 31 22 59% 35 76.17 0.0
03 13:53 SE 20 16.09 A Few Clouds FEW030 30.6 22.8 31.1 28.9 63% 35 76.2 1016.1
03 12:53 SE 24 16.09 A Few Clouds FEW030 31 22 59% 35 76.25 0.0
03 11:53 SE 19 G 33 16.09 Fair CLR 30 22 62% 33 76.3 0.0
03 10:53 SE 22 16.09 A Few Clouds FEW050 30 22 62% 33 76.33 0.0
03 09:53 SE 28 G 41 16.09 Partly Cloudy SCT026 29 23 70% 33 76.33 0.0
03 08:53 SE 20 G 33 16.09 Partly Cloudy SCT026 SCT033 29 22 66% 32 76.33 0.0
03 07:53 E 24 G 33 16.09 Fair CLR 29 22 66% 32 76.3 0.0
03 06:53 E 17 16.09 Fair CLR 27.2 22.8 77% 30 76.28 1016.8
03 05:53 E 13 16.09 Fair CLR 26 22 79% 28 76.23 0.0
03 04:53 E 7 16.09 Fair CLR 25 2.8 24% 25 76.2 1015.9
03 03:53 E 7 16.09 Fair CLR 26 3 23% 26 76.2 0.0
03 02:53 E 7 16.09 Fair CLR 26 3 23% 26 76.23 0.0
03 01:53 E 9 16.09 Fair CLR 26 4 24% 26 76.25 0.0
03 00:53 E 11 16.09 Fair CLR 27 4 23% 26 76.28 0.0
02 23:53 E 9 16.09 Fair CLR 26.7 3.9 23% 26 76.28 1017.1
02 22:53 E 9 16.09 Fair CLR 26.7 3.9 23% 26 76.3 1017.2
02 21:53 E 9 16.09 Fair CLR 27 4 23% 26 76.28 0.0
02 20:53 E 7 16.09 Fair CLR 27 4 23% 26 76.23 0.0
02 19:53 E 11 16.09 Fair CLR 27 4 23% 26 76.2 0.0
02 18:53 E 17 16.09 A Few Clouds FEW030 28 3 20% 27 76.15 0.0
02 17:53 SE 19 16.09 Fair CLR 29 4 20% 27 76.1 0.0
02 16:53 SE 22 G 37 16.09 A Few Clouds FEW030 29 4 20% 27 76.07 0.0
02 15:53 SE 24 16.09 Partly Cloudy SCT030 29 4 20% 27 76.07 0.0
02 14:53 SE 26 16.09 Partly Cloudy SCT030 29 4 20% 27 76.1 0.0
02 13:53 SE 26 16.09 Partly Cloudy SCT030 30 5 30 27.2 20% 28 76.15 1015.4
02 12:53 SE 24 G 37 16.09 Partly Cloudy SCT030 30 4 19% 28 76.23 0.0
02 11:53 SE 24 16.09 Partly Cloudy SCT030 SCT040 29 3 19% 27 76.25 0.0
02 10:53 E 22 G 39 16.09 Partly Cloudy SCT028 29 2 18% 27 76.28 0.0
02 09:53 SE 19 16.09 A Few Clouds FEW030 30 22.2 63% 33 76.28 1016.8
02 08:53 SE 24 16.09 Partly Cloudy FEW025 SCT032 29 22 66% 32 76.25 0.0
02 07:53 E 17 16.09 Fair CLR 29 22 66% 32 76.2 0.0
02 06:53 E 17 16.09 Fair CLR 27.2 22.2 74% 30 76.15 1015.2
02 05:53 E 11 16.09 Fair CLR 26 22 79% 28 76.1 0.0
02 04:53 E 7 16.09 Fair CLR 25 22.8 88% 26 76.07 1014.2
02 03:53 E 7 16.09 Fair CLR 26 22 79% 28 76.05 0.0
02 02:53 E 7 16.09 Fair CLR 26 22 79% 28 76.05 0.0
02 01:53 E 7 16.09 Fair CLR 26 22 79% 28 76.05 0.0
02 00:53 E 9 16.09 Fair CLR 26.1 22.2 79% 28 76.1 1014.6
01 23:53 E 9 16.09 Fair CLR 27 23 79% 30 76.15 0.0
01 21:53 E 11 16.09 Fair CLR 27 23 79% 30 76.12 0.0
01 20:53 E 7 16.09 Fair CLR 27 23 79% 30 76.07 0.0
01 19:53 E 9 16.09 Fair CLR 27 22 74% 29 76.05 0.0
01 18:53 E 15 16.09 Fair CLR 28 22 70% 31 76.02 0.0
01 16:53 SE 22 16.09 Partly Cloudy SCT030 29 23 70% 33 75.97 0.0
01 15:53 SE 22 16.09 Partly Cloudy SCT030 29.4 23.3 70% 34 75.97 1013.0
01 14:53 SE 24 16.09 Fair CLR 29 23 70% 33 75.97 0.0
01 13:53 SE 20 16.09 Partly Cloudy SCT037 SCT047 29 23 70% 33 76.02 0.0
01 12:53 SE 19 16.09 Partly Cloudy SCT030 SCT050 28 24 79% 32 76.1 0.0
01 11:53 SE 20 16.09 Partly Cloudy SCT050 29 24 74% 34 76.1 0.0
01 10:53 SE 17 16.09 Partly Cloudy SCT025 SCT080 30 23 66% 34 76.12 0.0
01 09:53 SE 15 16.09 Partly Cloudy SCT025 SCT055 29 24 74% 34 76.15 0.0
01 08:53 SE 19 16.09 Partly Cloudy SCT025 29 24 74% 34 76.07 0.0
01 07:53 SE 15 16.09 Mostly Cloudy FEW025 BKN090 29 24 74% 34 76.02 0.0
01 06:53 E 11 16.09 Mostly Cloudy BKN038 BKN048 27.2 23.3 79% 30 76 1013.1
01 05:53 Calm 16.09 Fair CLR 26 23 84% 28 75.95 0.0
01 04:53 E 7 16.09 Fair CLR 27 23 79% 30 75.92 0.0
01 03:53 E 7 16.09 Fair CLR 26 23 84% 28 75.87 0.0
01 02:53 E 6 16.09 Fair CLR 26.7 22.2 76% 29 75.92 1012.2
01 01:53 E 7 16.09 Fair CLR 26.7 22.2 27.8 26.7 76% 29 75.95 1012.7
01 00:53 E 11 16.09 Fair CLR 27 22 74% 29 76 0.0
30 23:53 NE 6 16.09 A Few Clouds FEW120 27 22 74% 29 76.05 0.0
30 21:53 E 9 16.09 Fair CLR 27 22 74% 29 76.05 0.0
30 20:53 NE 6 16.09 Fair CLR 27 23 79% 30 76.05 0.0
30 18:53 SE 11 16.09 Fair CLR 28 22 70% 31 75.92 0.0
30 17:53 SE 13 16.09 Fair CLR 28 23 74% 31 75.9 0.0
Date Time (ast) Wind (kph) Vis. (km) Weather Sky Cond. Air Dwpt Max. Min. Relative Humidity Wind Chill (°C) Heat Index (°C) altimeter (cm) sea level (mb) 1 hr 3 hr 6 hr
6 hour
Temperature (ºC) Pressure Precipitation (cm)